Location: Newark
(46.8500°N, 5.1667°E)
Time: 00:39:31
(UTC+00:00)

ISS - Pass Details

Date: 25 September 2019
Orbit: 411 x 421 km, 51.6° (Epoch: 21 October)

Event Time Altitude Azimuth Distance (km) Brightness Sun altitude
Rises 18:29:12 0° 255° (WSW) 2,340 1.4 -10.6°
Reaches altitude 10° 18:31:18 10° 260° (W) 1,479 0.3 -11.0°
Maximum altitude 18:34:35 58° 340° (NNW) 487 -3.3 -11.5°
Enters shadow 18:37:26 13° 59° (ENE) 1,308 -1.7 -12.0°
